GW1728 Weather Reports


Display with metric or nautical units.
time (UTC)temp
F
wind
direction
speed
MPH
gust
MPH
rain 1hr
in
rain 24hr
in
rain mn
in
humidity
%
barometer
mb
20260905095718 52 187 0.0 0.0 0.00 0.00 0.00 81 1019.1
20260905095212 51 331 2.0 3.0 0.00 0.00 0.00 82 1019.1
20260905094707 51 211 0.0 0.0 0.00 0.00 0.00 82 1019.6
20260905094207 51 208 0.0 0.0 0.00 0.00 0.00 82 1018.9
20260905093701 51 223 0.0 0.0 0.00 0.00 0.00 81 1018.6
20260905093157 51 242 0.0 0.0 0.00 0.00 0.00 80 1018.6
20260905092653 51 208 0.0 0.0 0.00 0.00 0.00 80 1018.6
20260905092148 52 246 0.0 0.0 0.00 0.00 0.00 79 1018.8
20260905091647 52 346 0.0 1.0 0.00 0.00 0.00 78 1019.0
20260905091142 53 237 0.0 0.0 0.00 0.00 0.00 76 1019.2
20260905090636 53 249 1.0 1.0 0.00 0.00 0.00 77 1019.4
20260905090132 52 250 0.0 0.0 0.00 0.00 0.00 78 1018.9
20260905085630 52 289 3.0 3.0 0.00 0.00 0.00 78 1019.0
20260905085126 52 263 0.0 0.0 0.00 0.00 0.00 78 1018.8
20260905084625 52 232 0.0 1.0 0.00 0.00 0.00 77 1018.9
20260905084115 52 235 3.0 3.0 0.00 0.00 0.00 79 1018.6
20260905083615 51 238 0.0 0.0 0.00 0.00 0.00 80 1018.3
20260905083111 51 238 0.0 0.0 0.00 0.00 0.00 81 1018.2
20260905082607 51 242 0.0 0.0 0.00 0.00 0.00 80 1018.3
20260905082102 51 241 0.0 0.0 0.00 0.00 0.00 80 1018.4
20260905081601 51 242 0.0 0.0 0.00 0.00 0.00 79 1018.3
20260905081051 52 246 0.0 0.0 0.00 0.00 0.00 78 1018.0
20260905080550 52 252 0.0 0.0 0.00 0.00 0.00 77 1018.0
20260905080045 53 347 0.0 0.0 0.00 0.00 0.00 75 1018.4
20260905075538 53 43 0.0 0.0 0.00 0.00 0.00 73 1018.0
20260905075033 53 55 0.0 0.0 0.00 0.00 0.00 73 1017.6
20260905074527 53 55 0.0 0.0 0.00 0.00 0.00 73 1017.3
20260905074023 53 48 5.0 7.0 0.00 0.00 0.00 74 1017.2
20260905073518 53 22 1.0 2.0 0.00 0.00 0.00 73 1018.4
20260905073014 53 231 0.0 0.0 0.00 0.00 0.00 74 1019.1
20260905072513 52 225 0.0 0.0 0.00 0.00 0.00 75 1019.2
20260905072009 52 226 0.0 0.0 0.00 0.00 0.00 75 1019.6
20260905071505 52 226 0.0 0.0 0.00 0.00 0.00 76 1019.6
20260905071000 53 234 0.0 0.0 0.00 0.00 0.00 74 1019.6
20260905070455 53 237 0.0 0.0 0.00 0.00 0.00 73 1019.2
20260905065955 54 237 0.0 0.0 0.00 0.00 0.00 71 1019.2
20260905065454 54 245 0.0 0.0 0.00 0.00 0.00 70 1019.0
20260905064949 54 227 0.0 0.0 0.00 0.00 0.00 69 1018.8
20260905064444 54 238 0.0 0.0 0.00 0.00 0.00 69 1018.7
20260905063939 54 357 2.0 3.0 0.00 0.00 0.00 69 1018.7
20260905063434 55 255 0.0 0.0 0.00 0.00 0.00 67 1018.4
20260905062930 56 292 0.0 0.0 0.00 0.00 0.00 65 1018.3
20260905062429 56 306 0.0 0.0 0.00 0.00 0.00 63 1018.3
20260905061925 57 350 3.0 3.0 0.00 0.00 0.00 62 1018.2
20260905061425 57 348 3.0 3.0 0.00 0.00 0.00 62 1018.0
20260905060924 57 338 4.0 5.0 0.00 0.00 0.00 61 1017.8
20260905060421 56 341 3.0 5.0 0.00 0.00 0.00 63 1018.0
20260905055919 56 288 1.0 1.0 0.00 0.00 0.00 62 1018.2
20260905055415 57 293 0.0 0.0 0.00 0.00 0.00 62 1018.6
20260905054914 57 22 3.0 3.0 0.00 0.00 0.00 62 1018.2
20260905054410 57 166 1.0 1.0 0.00 0.00 0.00 63 1018.4
20260905053910 57 270 1.0 1.0 0.00 0.00 0.00 63 1018.5
20260905053405 57 279 0.0 0.0 0.00 0.00 0.00 63 1018.4
20260905052901 57 255 0.0 1.0 0.00 0.00 0.00 62 1018.5
20260905052400 58 256 0.0 0.0 0.00 0.00 0.00 60 1018.2
20260905051859 59 203 1.0 1.0 0.00 0.00 0.00 59 1018.0
20260905051356 59 226 0.0 1.0 0.00 0.00 0.00 58 1018.0
20260905050853 59 210 0.0 1.0 0.00 0.00 0.00 58 1017.8
20260905050348 60 255 0.0 1.0 0.00 0.00 0.00 57 1017.6
20260905045849 60 201 1.0 1.0 0.00 0.00 0.00 57 1017.5
20260905045343 60 287 1.0 2.0 0.00 0.00 0.00 59 1017.4
20260905044839 59 334 2.0 3.0 0.00 0.00 0.00 59 1017.5
20260905044334 59 308 1.0 5.0 0.00 0.00 0.00 61 1017.6
20260905043833 58 143 1.0 2.0 0.00 0.00 0.00 66 1018.2
20260905043328 58 238 0.0 0.0 0.00 0.00 0.00 67 1018.2
20260905042822 58 230 1.0 1.0 0.00 0.00 0.00 68 1018.0
20260905042322 59 228 0.0 0.0 0.00 0.00 0.00 67 1017.8
20260905041818 59 235 0.0 0.0 0.00 0.00 0.00 66 1017.7
20260905041314 60 235 0.0 0.0 0.00 0.00 0.00 65 1017.6
20260905040808 61 257 0.0 0.0 0.00 0.00 0.00 61 1017.3
20260905040307 61 268 0.0 0.0 0.00 0.00 0.00 58 1017.3
20260905035802 62 338 1.0 1.0 0.00 0.00 0.00 56 1017.4
20260905035258 62 221 0.0 0.0 0.00 0.00 0.00 57 1018.2
20260905034754 62 221 1.0 2.0 0.00 0.00 0.00 55 1017.8
20260905034254 61 228 0.0 0.0 0.00 0.00 0.00 57 1017.2
20260905033752 61 221 0.0 0.0 0.00 0.00 0.00 59 1017.1
20260905033249 61 209 0.0 0.0 0.00 0.00 0.00 59 1017.2
20260905032748 60 240 0.0 1.0 0.00 0.00 0.00 58 1016.8
20260905032243 60 257 0.0 0.0 0.00 0.00 0.00 58 1016.8
20260905031738 61 245 0.0 0.0 0.00 0.00 0.00 58 1016.6
20260905031234 62 248 0.0 0.0 0.00 0.00 0.00 57 1016.5
20260905030729 62 250 0.0 0.0 0.00 0.00 0.00 56 1016.4
20260905030224 63 300 0.0 1.0 0.00 0.00 0.00 54 1016.1
20260905025719 63 264 0.0 0.0 0.00 0.00 0.00 54 1016.2
20260905025214 63 248 0.0 0.0 0.00 0.00 0.00 54 1016.5
20260905024710 63 246 0.0 0.0 0.00 0.00 0.00 54 1016.6
20260905024205 63 245 0.0 0.0 0.00 0.00 0.00 53 1016.4
20260905023700 63 256 0.0 0.0 0.00 0.00 0.00 52 1016.0
20260905023155 64 256 0.0 0.0 0.00 0.00 0.00 51 1016.0
20260905022654 64 257 0.0 0.0 0.00 0.00 0.00 49 1016.0
20260905022149 64 327 0.0 0.0 0.00 0.00 0.00 49 1015.6
20260905021649 65 340 1.0 2.0 0.00 0.00 0.00 48 1015.7
20260905021145 65 9 5.0 5.0 0.00 0.00 0.00 47 1015.7
20260905020640 66 20 3.0 3.0 0.00 0.00 0.00 47 1015.5
20260905020135 66 3 1.0 1.0 0.00 0.00 0.00 47 1015.5
20260905015632 67 2 3.0 5.0 0.00 0.00 0.00 45 1015.5
20260905015127 67 301 0.0 1.0 0.00 0.00 0.00 45 1015.6
20260905014621 67 319 2.0 3.0 0.00 0.00 0.00 44 1015.4
20260905014117 67 38 1.0 1.0 0.00 0.00 0.00 44 1015.3
20260905013613 68 260 0.0 0.0 0.00 0.00 0.00 43 1015.2
20260905013109 68 275 0.0 0.0 0.00 0.00 0.00 42 1014.6
20260905012608 68 14 5.0 7.0 0.00 0.00 0.00 41 1014.2
20260905012105 68 17 8.0 10.0 0.00 0.00 0.00 41 1014.0
20260905011601 68 6 4.0 6.0 0.00 0.00 0.00 41 1014.0
20260905011057 69 15 6.0 8.0 0.00 0.00 0.00 41 1014.1
20260905010556 69 37 7.0 10.0 0.00 0.00 0.00 40 1013.9
20260905010053 70 4 3.0 5.0 0.00 0.00 0.00 41 1013.7
20260905005548 70 12 5.0 9.0 0.00 0.00 0.00 40 1013.6
20260905005043 70 19 5.0 7.0 0.00 0.00 0.00 38 1013.6
20260905004538 71 35 6.0 7.0 0.00 0.00 0.00 39 1013.3
20260905004033 71 17 7.0 9.0 0.00 0.00 0.00 39 1013.2
20260905003529 71 14 8.0 10.0 0.00 0.00 0.00 39 1013.3
20260905003025 70 28 10.0 13.0 0.00 0.00 0.00 39 1013.7
20260905002519 70 0 7.0 9.0 0.00 0.00 0.00 39 1013.6
20260905002014 72 21 4.0 6.0 0.00 0.00 0.00 38 1013.7
20260905001509 72 15 11.0 13.0 0.00 0.00 0.00 37 1013.7
20260905001003 72 351 6.0 8.0 0.00 0.00 0.00 38 1013.6
20260905000459 72 19 6.0 8.0 0.00 0.00 0.00 38 1013.6
20260904235954 73 20 5.0 6.0 0.00 0.00 0.00 39 1013.9
20260904235449 73 252 4.0 6.0 0.00 0.00 0.00 39 1013.9
20260904234944 73 8 3.0 3.0 0.00 0.00 0.00 37 1013.9
20260904234443 75 8 5.0 6.0 0.00 0.00 0.00 36 1013.7
20260904233940 75 16 6.0 14.0 0.00 0.00 0.00 36 1013.6
20260904233434 76 353 7.0 8.0 0.00 0.00 0.00 37 1013.8
20260904232931 76 22 3.0 3.0 0.00 0.00 0.00 36 1013.9
20260904232427 75 295 1.0 2.0 0.00 0.00 0.00 36 1014.1
20260904231924 76 271 2.0 3.0 0.00 0.00 0.00 37 1014.1
20260904231424 75 298 3.0 3.0 0.00 0.00 0.00 34 1013.7
20260904230919 75 319 4.0 6.0 0.00 0.00 0.00 36 1013.9
20260904230418 75 36 3.0 5.0 0.00 0.00 0.00 36 1013.9
20260904225912 75 12 9.0 14.0 0.00 0.00 0.00 34 1014.0
20260904225411 74 11 4.0 5.0 0.00 0.00 0.00 35 1013.9
20260904224905 75 350 11.0 13.0 0.00 0.00 0.00 34 1013.8
20260904224401 75 14 3.0 5.0 0.00 0.00 0.00 36 1013.7
20260904223855 75 300 5.0 8.0 0.00 0.00 0.00 36 1013.7
20260904223354 75 23 8.0 10.0 0.00 0.00 0.00 35 1013.6
20260904222850 75 16 10.0 15.0 0.00 0.00 0.00 34 1013.7
20260904222345 75 356 9.0 10.0 0.00 0.00 0.00 35 1013.6
20260904221844 75 9 7.0 8.0 0.00 0.00 0.00 34 1013.7
20260904221340 75 330 5.0 7.0 0.00 0.00 0.00 34 1013.8
20260904220835 76 40 3.0 5.0 0.00 0.00 0.00 34 1013.7
20260904220334 76 347 3.0 5.0 0.00 0.00 0.00 35 1013.6
20260904215829 75 355 6.0 7.0 0.00 0.00 0.00 34 1013.6
20260904215325 76 19 3.0 5.0 0.00 0.00 0.00 34 1013.4
20260904214821 77 265 1.0 2.0 0.00 0.00 0.00 35 1013.2
20260904214316 76 256 2.0 2.0 0.00 0.00 0.00 33 1013.3
20260904213814 76 280 2.0 3.0 0.00 0.00 0.00 34 1013.1
20260904213309 76 272 3.0 3.0 0.00 0.00 0.00 35 1013.1
20260904212805 76 5 5.0 8.0 0.00 0.00 0.00 34 1013.2
20260904212300 77 337 2.0 2.0 0.00 0.00 0.00 34 1013.1
20260904211755 76 232 1.0 2.0 0.00 0.00 0.00 35 1013.2
20260904211249 75 21 2.0 2.0 0.00 0.00 0.00 34 1013.2
20260904210745 76 321 5.0 7.0 0.00 0.00 0.00 33 1013.2
20260904210239 75 5 5.0 8.0 0.00 0.00 0.00 36 1013.1
20260904205736 76 357 5.0 9.0 0.00 0.00 0.00 33 1012.9
20260904205231 75 257 1.0 1.0 0.00 0.00 0.00 35 1012.9
20260904204728 75 344 6.0 10.0 0.00 0.00 0.00 34 1013.0
20260904204223 75 5 2.0 3.0 0.00 0.00 0.00 34 1012.9
20260904203719 75 33 3.0 5.0 0.00 0.00 0.00 34 1013.0
20260904203216 75 296 3.0 5.0 0.00 0.00 0.00 34 1012.9
20260904202711 75 267 2.0 3.0 0.00 0.00 0.00 34 1013.0
20260904202207 75 320 4.0 5.0 0.00 0.00 0.00 35 1012.6
20260904201708 74 22 2.0 3.0 0.00 0.00 0.00 36 1012.8
20260904201202 74 352 4.0 6.0 0.00 0.00 0.00 36 1012.8
20260904200656 74 264 2.0 2.0 0.00 0.00 0.00 38 1012.7
20260904200151 74 312 2.0 3.0 0.00 0.00 0.00 36 1012.6
20260904195650 74 255 1.0 1.0 0.00 0.00 0.00 36 1012.3
20260904195144 74 264 4.0 5.0 0.00 0.00 0.00 35 1012.5
20260904194644 75 326 3.0 5.0 0.00 0.00 0.00 35 1012.2
20260904194138 74 342 3.0 3.0 0.00 0.00 0.00 36 1012.1
20260904193633 74 301 5.0 8.0 0.00 0.00 0.00 38 1012.0
20260904193130 74 6 3.0 3.0 0.00 0.00 0.00 37 1012.0
20260904192630 74 95 1.0 2.0 0.00 0.00 0.00 36 1012.0
20260904192125 74 34 2.0 2.0 0.00 0.00 0.00 37 1011.8
20260904191621 74 115 2.0 2.0 0.00 0.00 0.00 38 1011.8
20260904191118 72 301 2.0 3.0 0.00 0.00 0.00 39 1011.8
20260904190613 72 328 4.0 6.0 0.00 0.00 0.00 37 1011.7
20260904190109 72 34 2.0 3.0 0.00 0.00 0.00 39 1011.5
20260904185606 73 31 5.0 13.0 0.00 0.00 0.00 37 1011.4
20260904185100 72 317 3.0 5.0 0.00 0.00 0.00 38 1011.4
20260904184559 73 16 4.0 6.0 0.00 0.00 0.00 39 1011.5
20260904184055 73 271 5.0 8.0 0.00 0.00 0.00 38 1011.5
20260904183550 71 299 2.0 3.0 0.00 0.00 0.00 41 1011.3
20260904183045 71 185 1.0 2.0 0.00 0.00 0.00 40 1011.4
20260904182541 70 31 4.0 6.0 0.00 0.00 0.00 40 1011.4
20260904182041 71 268 3.0 3.0 0.00 0.00 0.00 39 1011.3
20260904181536 70 146 2.0 2.0 0.00 0.00 0.00 42 1011.3
20260904181036 69 175 0.0 1.0 0.00 0.00 0.00 43 1011.1
20260904180531 68 4 3.0 5.0 0.00 0.00 0.00 43 1011.6
20260904180026 69 338 3.0 6.0 0.00 0.00 0.00 43 1011.3
20260904175520 69 309 2.0 3.0 0.00 0.00 0.00 45 1011.5
20260904175018 68 336 6.0 8.0 0.00 0.00 0.00 43 1011.1
20260904174514 67 11 3.0 3.0 0.00 0.00 0.00 45 1011.3
20260904174011 66 199 1.0 1.0 0.00 0.00 0.00 47 1011.1
20260904173505 65 356 3.0 6.0 0.00 0.00 0.00 47 1011.3
20260904173000 64 330 3.0 3.0 0.00 0.00 0.00 49 1011.1
20260904172456 63 277 5.0 9.0 0.00 0.00 0.00 50 1011.5
20260904171950 64 319 3.0 6.0 0.00 0.00 0.00 51 1011.3
20260904171445 62 182 3.0 3.0 0.00 0.00 0.00 52 1011.5
20260904170941 62 293 3.0 5.0 0.00 0.00 0.00 55 1011.1
20260904170441 61 214 1.0 1.0 0.00 0.00 0.00 55 1011.1
20260904165937 61 169 3.0 3.0 0.00 0.00 0.00 55 1011.3
20260904165436 61 216 0.0 0.0 0.00 0.00 0.00 56 1011.0
20260904164935 61 247 2.0 3.0 0.00 0.00 0.00 54 1011.1
20260904164430 60 36 1.0 1.0 0.00 0.00 0.00 59 1010.7
20260904163927 59 167 2.0 2.0 0.00 0.00 0.00 60 1010.7
20260904163426 59 289 2.0 2.0 0.00 0.00 0.00 61 1010.6
20260904162926 58 322 1.0 2.0 0.00 0.00 0.00 60 1010.4
20260904162421 58 286 1.0 2.0 0.00 0.00 0.00 62 1010.6
20260904161911 57 182 2.0 2.0 0.00 0.00 0.00 62 1010.3
20260904161406 58 68 0.0 1.0 0.00 0.00 0.00 62 1010.6
20260904160902 58 222 0.0 0.0 0.00 0.00 0.00 64 1010.6
20260904160357 57 94 1.0 2.0 0.00 0.00 0.00 64 1010.3
20260904155852 57 330 2.0 2.0 0.00 0.00 0.00 63 1010.3
20260904155346 58 247 1.0 1.0 0.00 0.00 0.00 62 1010.3
20260904154844 58 218 2.0 2.0 0.00 0.00 0.00 62 1010.2
20260904154339 58 2 2.0 3.0 0.00 0.00 0.00 61 1010.2
20260904153835 58 263 1.0 1.0 0.00 0.00 0.00 62 1010.0
20260904153330 58 205 1.0 2.0 0.00 0.00 0.00 65 1010.0
20260904152826 58 235 0.0 1.0 0.00 0.00 0.00 64 1010.2
20260904152321 58 294 1.0 2.0 0.00 0.00 0.00 64 1009.8
20260904151816 57 237 0.0 0.0 0.00 0.00 0.00 66 1010.0
20260904151315 57 239 1.0 2.0 0.00 0.00 0.00 64 1009.9
20260904150811 57 148 0.0 1.0 0.00 0.00 0.00 66 1009.6
20260904150306 57 348 2.0 2.0 0.00 0.00 0.00 66 1009.4
20260904145804 57 201 0.0 0.0 0.00 0.00 0.00 67 1009.4
20260904145300 58 268 0.0 1.0 0.00 0.00 0.00 64 1009.1
20260904144755 58 255 0.0 0.0 0.00 0.00 0.00 64 1009.2
20260904144251 59 21 1.0 1.0 0.00 0.00 0.00 65 1009.0
20260904143747 60 234 2.0 2.0 0.00 0.00 0.00 66 1008.8
20260904143243 59 26 1.0 2.0 0.00 0.00 0.00 62 1008.7
20260904142739 59 305 0.0 1.0 0.00 0.00 0.00 67 1008.4
20260904142235 58 332 1.0 1.0 0.00 0.00 0.00 68 1008.3
20260904141735 57 26 4.0 6.0 0.00 0.00 0.00 68 1008.3
20260904141230 56 285 1.0 2.0 0.00 0.00 0.00 75 1008.2
20260904140726 55 253 0.0 0.0 0.00 0.00 0.00 78 1008.2
20260904140221 53 305 1.0 2.0 0.00 0.00 0.00 79 1008.2
20260904135719 53 275 0.0 0.0 0.00 0.00 0.00 80 1008.3
20260904135215 52 320 3.0 3.0 0.00 0.00 0.00 79 1008.5
20260904134711 52 233 1.0 1.0 0.00 0.00 0.00 78 1008.4
20260904134210 51 9 1.0 2.0 0.00 0.00 0.00 78 1008.0
20260904133705 51 98 1.0 1.0 0.00 0.00 0.00 81 1008.6
20260904133202 51 64 0.0 0.0 0.00 0.00 0.00 82 1008.5
20260904132700 51 244 0.0 0.0 0.00 0.00 0.00 84 1008.8
20260904132156 51 231 3.0 3.0 0.00 0.00 0.00 83 1009.0
20260904131655 50 7 3.0 5.0 0.00 0.00 0.00 83 1008.3
20260904131150 50 241 0.0 1.0 0.00 0.00 0.00 83 1009.1
20260904130645 50 268 0.0 1.0 0.00 0.00 0.00 82 1008.5
20260904130144 49 285 0.0 0.0 0.00 0.00 0.00 82 1008.4
20260904125641 49 264 0.0 0.0 0.00 0.00 0.00 84 1008.6
20260904125136 49 264 0.0 0.0 0.00 0.00 0.00 85 1009.0
20260904124631 48 328 0.0 0.0 0.00 0.00 0.00 85 1008.8
20260904124127 48 227 0.0 0.0 0.00 0.00 0.00 85 1008.5
20260904123627 48 296 0.0 0.0 0.00 0.00 0.00 86 1008.5
20260904123123 48 233 0.0 0.0 0.00 0.00 0.00 86 1008.5
20260904122617 48 254 0.0 0.0 0.00 0.00 0.00 86 1008.2
20260904122112 48 286 0.0 0.0 0.00 0.00 0.00 86 1008.2
20260904121607 48 255 0.0 0.0 0.00 0.00 0.00 87 1008.5
20260904121103 48 255 0.0 0.0 0.00 0.00 0.00 86 1008.2
20260904120559 48 253 0.0 0.0 0.00 0.00 0.00 86 1008.2
20260904120055 48 253 0.0 0.0 0.00 0.00 0.00 86 1008.3
20260904115550 48 255 0.0 0.0 0.00 0.00 0.00 86 1008.1
20260904115045 48 258 0.0 0.0 0.00 0.00 0.00 85 1008.1
20260904114545 48 259 0.0 0.0 0.00 0.00 0.00 85 1008.2
20260904114044 48 261 0.0 0.0 0.00 0.00 0.00 84 1008.3
20260904113539 49 264 0.0 1.0 0.00 0.00 0.00 83 1008.5
20260904113038 49 314 0.0 0.0 0.00 0.00 0.00 83 1008.4
20260904112534 48 272 0.0 0.0 0.00 0.00 0.00 84 1008.1
20260904112030 49 298 1.0 2.0 0.00 0.00 0.00 84 1008.3
20260904111526 49 291 1.0 2.0 0.00 0.00 0.00 83 1008.2
20260904111021 49 265 1.0 1.0 0.00 0.00 0.00 83 1008.5
20260904110520 49 257 0.0 0.0 0.00 0.00 0.00 82 1008.4
20260904110017 50 262 1.0 1.0 0.00 0.00 0.00 81 1008.5
20260904105510 50 264 0.0 0.0 0.00 0.00 0.00 80 1008.7
20260904105005 50 282 1.0 1.0 0.00 0.00 0.00 80 1008.7
20260904104500 51 266 0.0 0.0 0.00 0.00 0.00 78 1008.6
20260904103956 51 261 1.0 1.0 0.00 0.00 0.00 78 1008.7
20260904103452 52 263 0.0 0.0 0.00 0.00 0.00 75 1008.6
20260904102948 51 268 0.0 0.0 0.00 0.00 0.00 75 1009.0
20260904102443 51 307 2.0 2.0 0.00 0.00 0.00 77 1008.8
20260904101938 52 277 0.0 0.0 0.00 0.00 0.00 76 1009.0
20260904101435 52 289 0.0 0.0 0.00 0.00 0.00 73 1009.1
20260904100931 52 355 0.0 0.0 0.00 0.00 0.00 73 1009.2
20260904100427 53 222 0.0 1.0 0.00 0.00 0.00 72 1009.3